Tracking 19177 objects as of 24-May-2018
HD Live streaming from Space Station
objects crossing your sky now

NAVSTAR 16 (USA 47)

Track NAVSTAR 16 (USA 47) now!
NAVSTAR 16 (USA 47) is classified as:


NORAD ID: 20302
Int'l Code: 1989-085A
Perigee: 21,199.7 km
Apogee: 21,241.3 km
Inclination: 55.0 °
Period: 760.2 minutes
Semi major axis: 27591 km
RCS: 1.9976 m2 (large)
Launch date: October 21, 1989
Source: United States (US)
Launch site: AIR FORCE EASTERN TEST RANGE (AFETR)
PRN:
aabbcc
Your satellite tracking list
Your tracking list is empty




NASA's NSSDC Master Catalog

Two Line Element Set (TLE):
1 20302U 89085A   18143.59350453 -.00000061 +00000-0 +00000-0 0  9996
2 20302 054.9935 288.5973 0007533 052.6680 301.7751 01.89425820202716
Source of the keplerian elements: AFSPC